Regional Weather Roundup
Issued by NWS

Home | Current Version | Previous Version | Text Only | Print | Product List | Glossary Off
Versions: 1 2 3 4 5 6 7 8 9 10 11 12 13 14 15 16 17 18 19 20 21 22 23 24 25 26 27 28 29 30 31 32 33 34 35 36 37 38 39 40 41 42 43 44 45 46 47 48 49 50

000
ASUS43 KDTX 252001
RWRMI
MICHIGAN HOURLY REGIONAL WEATHER ROUNDUP
NATIONAL WEATHER SERVICE DETROIT/PONTIAC MI
400 PM EDT SAT MAR 25 2017

NOTE: "FAIR" INDICATES FEW OR NO CLOUDS BELOW 12,000 FEET WITH NO
SIGNIFICANT WEATHER AND/OR OBSTRUCTION TO VISIBILITY.

MIZ047>049-052>055-059>063-066>070-074>076-081>083-252100-
SOUTHEAST LOWER MICHIGAN

CITY           SKY/WX    TMP DP  RH WIND       PRES   REMARKS
ADRIAN         CLOUDY    44  41  89 E17G23    30.16S
ALMA           LGT SNOW  37  37  99 NE20      30.22F WCI  26
ANN ARBOR      CLOUDY    44  42  93 E12       30.18S FOG
BAD AXE        DRIZZLE   37  35  92 E12G18    30.29F WCI  29
CARO           DRIZZLE   38  37  96 E7        30.24F WCI  32
DETROIT CITY   CLOUDY    43  40  89 E15       30.21F
DETROIT        CLOUDY    45  42  89 E9        30.20F FOG
FLINT          CLOUDY    41  39  93 E13       30.21F
GROSSE ILE     CLOUDY    43  38  81 E9G17     30.19F
HILLSDALE      CLOUDY    46  43  87 E17       30.10F FOG
HOWELL         CLOUDY    43  40  90 E10       30.18S

CITY           SKY/WX    TMP DP  RH WIND       PRES   REMARKS
JACKSON        CLOUDY    44  32  62 E15       30.14F
LAMBERTVILLE   CLOUDY    41  36  84 E15G23    30.18S
LANSING        LGT RAIN  42  38  85 NE9       30.19R
LAPEER         CLOUDY    40  39  97 E7G18     30.22F WCI  35
MASON          CLOUDY    43  42  96 E7        30.16F
MONROE         CLOUDY    44  39  85 E15G22    30.18S
MT. CLEMENS    CLOUDY    43  43 100 NE9       30.20F
PONTIAC        CLOUDY    42  40  92 E9        30.19F FOG
PORT HOPE        N/A     34  33  96 NE15      30.29F WCI  24
TRI CITIES     CLOUDY    37  36  96 NE20G26   30.23F WCI  27
MIDLAND        MIX PCPN  36  34  93 NE15G23   30.25R WCI  26
TROY           CLOUDY    44  40  87 E12       30.22F
SAGINAW HB     CLOUDY    37  34  87 NE21      30.23F WCI  27
$$
MIZ043>046-050>051-056>058-064>065-071>073-077>080-252100-
SOUTHWEST LOWER MICHIGAN

CITY           SKY/WX    TMP DP  RH WIND       PRES   REMARKS
BATTLE CREEK   CLOUDY    45  43  93 E15       30.11F
BENTON HARBOR  CLOUDY    51  45  79 E15G23    30.03F
BIG RAPIDS     LGT SNOW  36  33  90 E13G20    30.18F WCI  27
COLDWATER      CLOUDY    54  46  74 E10       30.10R
FREMONT        DRIZZLE   38  36  92 E15G21    30.15F WCI  29
HOLLAND        CLOUDY    43  39  86 E20G25    30.10F
GRAND RAPIDS   LGT RAIN  40  38  93 E22G29    30.14F WCI  30
IONIA          LGT RAIN  38  37  94 E13G23    30.17S WCI  30
KALAMAZOO      CLOUDY    46  41  82 E10G17    30.11F
LUDINGTON      DRIZZLE   40  36  86 E15G22    30.15F WCI  32
MARSHALL       CLOUDY    45  44  97 E10G16    30.11F
MOUNT PLEASANT LGT RAIN  35  33  93 E8G17     30.27R WCI  29
MUSKEGON       LGT RAIN  41  38  89 E17       30.12F
SOUTH HAVEN    CLOUDY    46  44  91 E12G21    30.06F
$$
MIZ016>042-252100-
NORTHERN LOWER MICHIGAN

CITY           SKY/WX    TMP DP  RH WIND       PRES   REMARKS
ALPENA         CLOUDY    35  29  78 E14       30.35F WCI  26
BEAVER ISLAND  CLOUDY    35  29  79 E22       30.29F WCI  23
BELLAIRE       CLOUDY    40  31  69 E12G20    30.24F WCI  33
CADILLAC       CLOUDY    36  32  88 E16G28    30.17S WCI  26
CHARLEVOIX     CLOUDY    41  31  67 E17       30.28F
FRANKFORT      CLOUDY    41  33  73 SE9G17    30.18S
GAYLORD        CLOUDY    37  28  70 E9G18     30.25F WCI  30
HARBOR SPRINGS CLOUDY    40  31  70 E17G24    30.28F WCI  31
HOUGHTON LAKE  CLOUDY    35  31  85 E16       30.22F WCI  25
MANISTEE       LGT RAIN  40  35  83 E15       30.17R WCI  32
OSCODA         CLOUDY    35  32  87 E17       30.33S WCI  25
PELLSTON       CLOUDY    39  26  59 E15G22    30.31F WCI  31
ROGERS CITY    CLOUDY    33  28  81 E13G18      N/A  WCI  24
TRAVERSE CITY  CLOUDY    41  33  73 E14G26    30.20F
$$
MIZ007>008-015-252100-
EASTERN UPPER MICHIGAN

CITY           SKY/WX    TMP DP  RH WIND       PRES   REMARKS
KINROSS        CLOUDY    38  20  48 E13       30.33F WCI  30
MACKINAC ISLAN PTSUNNY   33  24  69 E13G22    30.33F WCI  24
NEWBERRY       PTSUNNY   40  27  59 E9        30.28F WCI  34
S. S. MARIE    SUNNY     40  21  46 SE8       30.33F WCI  34
MUNISING         N/A     34  30  85 N12       30.29F WCI  25
$$
MIZ004>006-011>014-085-252100-
CENTRAL UPPER MICHIGAN

CITY           SKY/WX    TMP DP  RH WIND       PRES   REMARKS
ESCANABA       CLOUDY    39  30  70 E16G23    30.26F WCI  30
MENOMINEE        N/A    N/A N/A N/A MISG        N/A
SAWYER-GWINN   CLOUDY    34  30  86 N9        30.26F WCI  26
$$
MIZ001>003-009>011-084-252100-
WESTERN UPPER MICHIGAN

CITY           SKY/WX    TMP DP  RH WIND       PRES   REMARKS
IRON MOUNTAIN  CLOUDY    41  29  62 NE10      30.21F
HOUGHTON       CLOUDY    32  26  78 E9        30.28F WCI  24
COPPER HARBOR    N/A     32  26  78 SE8G16    30.32F WCI  25
IRONWOOD       CLOUDY    38  30  73 E12       30.20F WCI  30
$$

ABBREVIATIONS USED IN REMARKS
   TC - TEMPERATURE IN CELSIUS
  WCI - WIND CHILL INDEX
   HX - HEAT INDEX
  VSB - VISIBILITY





USA.gov is the U.S. government's official web portal to all federal, state and local government web resources and services.